Eveleth, MN

11:07 AM CDT on July 23, 2017 (GMT -0500)
Eveleth-Virginia Municipal

Weather History for KEVM - September, 2013

Change the Weather History Date:

Friday, September 27, 2013

  Actual Average Record
Temperature  
Mean Temperature 63 °F -  
Max Temperature 75 °F 58 °F 80 °F (2014)
Min Temperature 51 °F 36 °F 26 °F (2012)
Degree Days  
Heating Degree Days 2    
Growing Degree Days 13 (Base 50)    
Moisture  
Dew Point 56 °F    
Average Humidity 75    
Maximum Humidity 94    
Minimum Humidity 53    
Precipitation  
Precipitation 0.00 in - - ()
Sea Level Pressure  
Sea Level Pressure 29.89 in    
Wind  
Wind Speed 7 mph (SSE)    
Max Wind Speed 22 mph    
Max Gust Speed 32 mph    
Visibility 10 miles    
Events Rain , Thunderstorm    
Averages and records for this station are not official NWS values.
T = Trace of Precipitation, MM = Missing Value Source: NWS Daily Summary

Daily Weather History Graph

Daily Weather History Graph

Search for Another Location

Airport or City:

Trip Planner

Search our weather history database for the weather conditions in past years. The results will help you decide how hot, cold, wet, or windy it might be!

Date:

Astronomy

Sep. 27, 2013 Rise Set
Actual Time 7:03 AM CDT 6:56 PM CDT
Civil Twilight 6:33 AM CDT 7:27 PM CDT
Nautical Twilight 5:57 AM CDT 8:03 PM CDT
Astronomical Twilight 5:20 AM CDT 8:39 PM CDT
Moon No Moon Rise 2:57 PM CDT (9/27)
Length of Visible Light 12h 54m
Length of Day
11h 53m
Last Quarter, 45% of the Moon is Illuminated
Sep 27
Last Quarter
Oct 4
New
Oct 11
First Quarter
Oct 18
Full
Oct 26
Last Quarter

Hourly Weather History & Observations

Time (CDT) Temp. Dew Point Humidity Pressure Visibility Wind Dir Wind Speed Gust Speed Precip Events Conditions
12:07 AM 51.8 °F 50.0 °F 94% 29.96 in 10.0 mi NE 3.5 mph - N/A   Clear
12:26 AM 51.8 °F 50.0 °F 94% 29.96 in 10.0 mi NE 3.5 mph - N/A   Clear
12:47 AM 51.8 °F 50.0 °F 94% 29.96 in 10.0 mi Calm Calm - N/A   Clear
1:07 AM 53.6 °F 50.0 °F 88% 29.96 in 10.0 mi Calm Calm - N/A   Clear
1:26 AM 57.2 °F 51.8 °F 82% 29.96 in 10.0 mi SE 3.5 mph - N/A   Clear
1:47 AM 57.2 °F 51.8 °F 82% 29.96 in 10.0 mi SSE 4.6 mph - N/A   Clear
2:07 AM 57.2 °F 51.8 °F 82% 29.96 in 10.0 mi SSE 6.9 mph - N/A   Clear
2:26 AM 59.0 °F 53.6 °F 82% 29.95 in 10.0 mi SSE 5.8 mph - N/A   Clear
2:47 AM 59.0 °F 51.8 °F 77% 29.95 in 10.0 mi SSE 5.8 mph - N/A   Clear
3:07 AM 59.0 °F 51.8 °F 77% 29.95 in 10.0 mi SSE 6.9 mph 17.3 mph N/A   Clear
3:26 AM 59.0 °F 51.8 °F 77% 29.95 in 10.0 mi SSE 6.9 mph - N/A   Clear
3:47 AM 59.0 °F 51.8 °F 77% 29.94 in 10.0 mi SE 5.8 mph - N/A   Clear
4:07 AM 59.0 °F 53.6 °F 82% 29.94 in 10.0 mi SE 3.5 mph - N/A   Clear
4:27 AM 59.0 °F 53.6 °F 82% 29.94 in 10.0 mi SSE 5.8 mph - N/A   Clear
4:47 AM 59.0 °F 53.6 °F 82% 29.93 in 10.0 mi SE 4.6 mph - N/A   Clear
5:07 AM 59.0 °F 51.8 °F 77% 29.93 in 10.0 mi SE 4.6 mph - N/A   Clear
5:27 AM 59.0 °F 51.8 °F 77% 29.93 in 10.0 mi SE 3.5 mph - N/A   Clear
5:47 AM 57.2 °F 51.8 °F 82% 29.93 in 10.0 mi ESE 4.6 mph - N/A   Clear
6:07 AM 57.2 °F 51.8 °F 82% 29.93 in 10.0 mi ESE 3.5 mph - N/A   Clear
6:27 AM 57.2 °F 51.8 °F 82% 29.92 in 10.0 mi Calm Calm - N/A   Clear
6:46 AM 57.2 °F 53.6 °F 88% 29.92 in 10.0 mi Calm Calm - N/A   Clear
7:07 AM 57.2 °F 53.6 °F 88% 29.93 in 10.0 mi Calm Calm - N/A   Clear
7:27 AM 57.2 °F 51.8 °F 82% 29.93 in 10.0 mi SE 3.5 mph - N/A   Clear
7:46 AM 59.0 °F 53.6 °F 82% 29.93 in 10.0 mi SSE 6.9 mph - N/A   Clear
8:07 AM 60.8 °F 53.6 °F 77% 29.92 in 10.0 mi SSE 6.9 mph - N/A   Scattered Clouds
8:27 AM 62.6 °F 55.4 °F 77% 29.93 in 10.0 mi South 9.2 mph - N/A   Scattered Clouds
8:46 AM 62.6 °F 55.4 °F 77% 29.93 in 10.0 mi South 8.1 mph - N/A   Overcast
9:07 AM 62.6 °F 55.4 °F 77% 29.95 in 10.0 mi South 9.2 mph - N/A   Overcast
9:27 AM 62.6 °F 55.4 °F 77% 29.95 in 10.0 mi South 6.9 mph - N/A   Overcast
9:46 AM 62.6 °F 55.4 °F 77% 29.95 in 10.0 mi South 6.9 mph - N/A   Mostly Cloudy
10:07 AM 62.6 °F 55.4 °F 77% 29.95 in 10.0 mi South 10.4 mph - N/A Rain , Thunderstorm Light Thunderstorms and Rain
10:27 AM 62.6 °F 57.2 °F 82% 29.93 in 10.0 mi SSE 10.4 mph - N/A Rain Light Rain
10:46 AM 62.6 °F 59.0 °F 88% 29.91 in 10.0 mi SE 4.6 mph - N/A Rain Light Rain
11:07 AM 62.6 °F 59.0 °F 88% 29.91 in 10.0 mi SE 6.9 mph - N/A   Light Drizzle
11:27 AM 64.4 °F 59.0 °F 83% 29.90 in 10.0 mi SSE 10.4 mph - N/A   Scattered Clouds
11:46 AM 69.8 °F 59.0 °F 68% 29.90 in 10.0 mi SSE 10.4 mph - N/A   Clear
12:07 PM 71.6 °F 59.0 °F 64% 29.88 in 10.0 mi SSE 11.5 mph 19.6 mph N/A   Scattered Clouds
12:27 PM 71.6 °F 57.2 °F 60% 29.88 in 10.0 mi South 17.3 mph 23.0 mph N/A   Clear
12:46 PM 75.2 °F 57.2 °F 53% 29.87 in 10.0 mi South 21.9 mph 26.5 mph N/A   Clear
1:07 PM 75.2 °F 57.2 °F 53% 29.87 in 10.0 mi South 21.9 mph 32.2 mph N/A   Clear
1:27 PM 73.4 °F 55.4 °F 53% 29.87 in 10.0 mi South 17.3 mph 25.3 mph N/A   Scattered Clouds
1:46 PM 71.6 °F 57.2 °F 60% 29.86 in 10.0 mi South 17.3 mph 26.5 mph N/A   Mostly Cloudy
2:07 PM 71.6 °F 57.2 °F 60% 29.86 in 10.0 mi SSE 18.4 mph 25.3 mph N/A   Mostly Cloudy
2:27 PM 71.6 °F 57.2 °F 60% 29.86 in 10.0 mi South 13.8 mph 24.2 mph N/A   Scattered Clouds
2:47 PM 71.6 °F 59.0 °F 64% 29.85 in 10.0 mi SSE 12.7 mph 21.9 mph N/A   Clear
3:07 PM 69.8 °F 57.2 °F 64% 29.84 in 10.0 mi SSE 13.8 mph 24.2 mph N/A   Scattered Clouds
3:27 PM 68.0 °F 57.2 °F 68% 29.84 in 10.0 mi SSE 10.4 mph 23.0 mph N/A   Clear
3:46 PM 69.8 °F 59.0 °F 68% 29.83 in 10.0 mi SSE 11.5 mph - N/A   Clear
4:07 PM 66.2 °F 57.2 °F 73% 29.83 in 10.0 mi SSE 10.4 mph - N/A Rain Light Rain
4:27 PM 66.2 °F 57.2 °F 73% 29.83 in 10.0 mi South 12.7 mph 16.1 mph N/A   Scattered Clouds
4:46 PM 64.4 °F 59.0 °F 83% 29.83 in 10.0 mi SSE 10.4 mph - N/A Rain Rain
5:07 PM 64.4 °F 59.0 °F 83% 29.84 in 10.0 mi SSE 6.9 mph - N/A   Mostly Cloudy
5:27 PM 68.0 °F 59.0 °F 73% 29.83 in 10.0 mi SE 8.1 mph - N/A   Scattered Clouds
5:46 PM 71.6 °F 60.8 °F 69% 29.83 in 10.0 mi SSE 12.7 mph 19.6 mph N/A   Scattered Clouds
6:07 PM 69.8 °F 59.0 °F 68% 29.83 in 10.0 mi SSE 11.5 mph 21.9 mph N/A   Scattered Clouds
6:27 PM 69.8 °F 60.8 °F 73% 29.83 in 10.0 mi SSE 10.4 mph - N/A   Mostly Cloudy
6:47 PM 68.0 °F 59.0 °F 73% 29.83 in 10.0 mi SSE 8.1 mph - N/A   Scattered Clouds
7:07 PM 68.0 °F 59.0 °F 73% 29.83 in 10.0 mi South 11.5 mph 16.1 mph N/A   Clear
7:27 PM 69.8 °F 59.0 °F 68% 29.83 in 10.0 mi SSE 12.7 mph 17.3 mph N/A   Clear
7:47 PM 69.8 °F 59.0 °F 68% 29.83 in 10.0 mi SSE 11.5 mph 18.4 mph N/A   Clear
8:07 PM 69.8 °F 59.0 °F 68% 29.83 in 10.0 mi South 10.4 mph - N/A   Clear
8:27 PM 69.8 °F 59.0 °F 68% 29.83 in 10.0 mi South 13.8 mph 19.6 mph N/A   Scattered Clouds
8:47 PM 68.0 °F 59.0 °F 73% 29.83 in 10.0 mi SSE 11.5 mph 23.0 mph N/A   Scattered Clouds
9:07 PM 69.8 °F 59.0 °F 68% 29.83 in 10.0 mi SSE 13.8 mph - N/A   Clear
9:27 PM 69.8 °F 59.0 °F 68% 29.83 in 10.0 mi SSE 11.5 mph 19.6 mph N/A   Clear
9:47 PM 69.8 °F 59.0 °F 68% 29.83 in 10.0 mi South 13.8 mph 21.9 mph N/A   Clear
10:07 PM 71.6 °F 60.8 °F 69% 29.82 in 10.0 mi South 11.5 mph 23.0 mph N/A   Clear
10:27 PM 69.8 °F 59.0 °F 68% 29.83 in 10.0 mi South 12.7 mph 20.7 mph N/A   Clear
10:47 PM 71.6 °F 60.8 °F 69% 29.82 in 10.0 mi South 15.0 mph 19.6 mph N/A   Clear
11:07 PM 69.8 °F 59.0 °F 68% 29.82 in 10.0 mi South 13.8 mph 19.6 mph N/A   Clear
11:27 PM 69.8 °F 60.8 °F 73% 29.82 in 10.0 mi South 13.8 mph 21.9 mph N/A   Clear
11:47 PM 69.8 °F 59.0 °F 68% 29.82 in 10.0 mi South 9.2 mph 18.4 mph N/A   Clear